This demonstration page uses our WeatherBlox Daily Observations layout. Learn more.

Left ArrowRight Arrow

41.12389, -100.76542

Hourly Observations for November 2, 2016

Temp ( °F °C ) Dew Point ( °F °C ) Humidity (%) Winds ( mph kmh ) Pressure ( in mb ) Visibility ( mi km ) Precip ( " mm )
12:53 am 00:53 Clear 43 6.1 33 0.6 68 68 Calm 30.03 1017 10 16 0.00 0.00
1:53 am 01:53 Clear 43 6.1 33 0.6 68 68 Calm 30.02 1017 10 16 0.00 0.00
2:53 am 02:53 Clear 36 2.2 31 -0.6 82 82 WNW 3 6 30.05 1018 10 16 0.00 0.00
3:53 am 03:53 Mostly Cloudy 38 3.3 34 1.1 86 86 N 3 6 30.06 1018 10 16 0.00 0.00
4:53 am 04:53 Clear 37 2.8 34 1.1 89 89 W 6 9 30.07 1018 10 16 0.00 0.00
5:53 am 05:53 Clear 42 5.6 38 3.3 85 85 WNW 3 6 30.10 1019 10 16 0.00 0.00
6:53 am 06:53 Partly Cloudy 40 4.4 37 2.8 89 89 NW 5 7 30.12 1020 10 16 0.00 0.00
7:53 am 07:53 Clear 39 3.9 36 2.2 89 89 NNW 3 6 30.16 1021 10 16 0.00 0.00
8:53 am 08:53 Sunny 42 5.6 38 3.3 85 85 W 3 6 30.19 1022 10 16 0.00 0.00
9:53 am 09:53 Sunny 52 11.1 40 4.4 64 64 Calm 30.20 1023 10 16 0.00 0.00
10:53 am 10:53 Mostly Cloudy 60 15.6 38 3.3 44 44 NNE 8 13 30.20 1023 10 16 0.00 0.00
11:53 am 11:53 Mostly Cloudy 62 16.7 37 2.8 40 40 NNE 10 17 30.21 1023 10 16 0.00 0.03
12:53 pm 12:53 Sunny 66 18.9 40 4.4 39 39 N 8 13 30.21 1023 10 16 0.00 0.00
1:53 pm 13:53 Sunny 68 20 39 3.9 35 35 NNW 10 17 30.20 1023 10 16 0.00 0.00
2:53 pm 14:53 Sunny 69 20.6 36 2.2 30 30 N 13 20 30.20 1023 10 16 0.00 0.00
3:53 pm 15:53 Sunny 70 21.1 35 1.7 28 28 NNE 8 13 30.21 1023 10 16 0.00 0.00
4:53 pm 16:53 Sunny 70 21.1 35 1.7 28 28 N 5 7 30.22 1023 10 16 0.00 0.00
5:53 pm 17:53 Sunny 67 19.4 36 2.2 32 32 NNE 5 7 30.22 1024 10 16 0.00 0.00
6:53 pm 18:53 Clear 56 13.3 35 1.7 46 46 Calm 30.26 1025 10 16 0.00 0.00
7:53 pm 19:53 Clear 49 9.4 34 1.1 56 56 Calm 30.30 1026 10 16 0.00 0.00
8:53 pm 20:53 Clear 46 7.8 34 1.1 63 63 Calm 30.32 1027 10 16 0.00 0.00
9:53 pm 21:53 Clear 40 4.4 32 0 73 73 Calm 30.32 1027 10 16 0.00 0.00
10:53 pm 22:53 Clear 38 3.3 33 0.6 83 83 WNW 3 6 30.34 1027 10 16 0.00 0.00
11:53 pm 23:53 Clear 36 2.2 33 0.6 89 89 NW 3 6 30.34 1028 10 16 0.00 0.00

Powered by AerisWeather